Radiation Dose at Monitoring Post of Fukushima Daini Nuclear Power Station
Date,Time,MP-1(microSv/h),MP-2(microSv/h),MP-3(microSv/h),MP-4(microSv/h),MP-5(microSv/h),MP-6(microSv/h),MP-7(microSv/h),Wind Direction,Wind Velocity(m/s),Rain
2020/06/18,00:00,0.180,0.164,0.268,0.255,0.250,0.140,0.086,south-southeast,4.7,No
2020/06/18,00:10,0.179,0.163,0.266,0.256,0.251,0.141,0.084,south-southeast,5.6,No
2020/06/18,00:20,0.179,0.164,0.268,0.255,0.250,0.140,0.085,south,5.3,No
2020/06/18,00:30,0.177,0.163,0.266,0.255,0.251,0.140,0.085,south,4.6,No
2020/06/18,00:40,0.179,0.163,0.268,0.254,0.248,0.140,0.086,south-southeast,4.6,No
2020/06/18,00:50,0.178,0.164,0.267,0.255,0.251,0.140,0.086,south,4.7,No
2020/06/18,01:00,0.179,0.163,0.267,0.254,0.249,0.141,0.085,south-southeast,4.7,No
2020/06/18,01:10,0.179,0.163,0.267,0.257,0.251,0.140,0.086,south,3.8,No
2020/06/18,01:20,0.178,0.163,0.267,0.254,0.249,0.140,0.086,south,3.6,No
2020/06/18,01:30,0.178,0.163,0.267,0.256,0.250,0.140,0.086,south-southeast,4.4,No
2020/06/18,01:40,0.178,0.164,0.269,0.254,0.249,0.140,0.085,south,3.9,No
2020/06/18,01:50,0.177,0.163,0.267,0.255,0.251,0.140,0.086,south,3.0,No
2020/06/18,02:00,0.180,0.163,0.267,0.254,0.250,0.141,0.086,south,2.4,No
2020/06/18,02:10,0.178,0.162,0.267,0.254,0.250,0.140,0.086,south,2.6,No
2020/06/18,02:20,0.179,0.162,0.268,0.256,0.250,0.141,0.086,south,2.3,No
2020/06/18,02:30,0.178,0.164,0.269,0.254,0.251,0.140,0.086,south,2.9,No
2020/06/18,02:40,0.178,0.164,0.266,0.255,0.250,0.141,0.085,south,3.2,No
2020/06/18,02:50,0.177,0.163,0.267,0.254,0.250,0.140,0.085,south,3.0,No
2020/06/18,03:00,0.179,0.163,0.267,0.256,0.249,0.140,0.086,south-southeast,3.1,No
2020/06/18,03:10,0.177,0.163,0.268,0.254,0.251,0.140,0.085,south,3.5,No
2020/06/18,03:20,0.179,0.164,0.268,0.256,0.248,0.140,0.085,south-southeast,3.1,No
2020/06/18,03:30,0.178,0.164,0.268,0.255,0.252,0.141,0.085,south-southeast,3.7,No
2020/06/18,03:40,0.179,0.162,0.268,0.255,0.248,0.139,0.086,south-southeast,3.1,No
2020/06/18,03:50,0.179,0.164,0.267,0.255,0.252,0.141,0.085,south-southeast,3.1,No
2020/06/18,04:00,0.179,0.164,0.268,0.256,0.248,0.140,0.086,south-southeast,3.3,No
2020/06/18,04:10,0.178,0.163,0.266,0.255,0.251,0.141,0.085,south-southeast,3.3,No
2020/06/18,04:20,0.178,0.163,0.268,0.254,0.248,0.140,0.085,south,2.3,No
2020/06/18,04:30,0.178,0.163,0.266,0.256,0.251,0.140,0.085,south-southeast,2.5,No
2020/06/18,04:40,0.179,0.163,0.267,0.254,0.249,0.141,0.086,south-southeast,2.4,No
2020/06/18,04:50,0.178,0.163,0.266,0.255,0.251,0.140,0.086,south-southeast,1.9,No
2020/06/18,05:00,0.178,0.164,0.267,0.255,0.248,0.140,0.085,south-southeast,1.4,No
2020/06/18,05:10,0.179,0.162,0.266,0.254,0.252,0.141,0.086,south,1.1,No
2020/06/18,05:20,0.178,0.163,0.267,0.255,0.249,0.140,0.086,south-southeast,1.0,No
2020/06/18,05:30,0.177,0.162,0.267,0.254,0.250,0.140,0.086,south-southeast,1.1,No
2020/06/18,05:40,0.179,0.163,0.268,0.255,0.248,0.141,0.085,south,1.5,No
2020/06/18,05:50,0.178,0.162,0.267,0.254,0.250,0.141,0.085,south,1.6,No
2020/06/18,06:00,0.179,0.163,0.267,0.255,0.251,0.140,0.085,south,1.4,No
2020/06/18,06:10,0.178,0.163,0.265,0.254,0.248,0.140,0.085,south,0.8,No
2020/06/18,06:20,0.178,0.164,0.268,0.254,0.251,0.140,0.087,southwest,1.4,No
2020/06/18,06:30,0.179,0.163,0.267,0.255,0.249,0.141,0.086,southwest,0.7,No
2020/06/18,06:40,0.178,0.163,0.267,0.254,0.251,0.141,0.087,south-southwest,0.8,No
2020/06/18,06:50,0.178,0.164,0.265,0.255,0.250,0.141,0.086,south,1.0,No
2020/06/18,07:00,0.179,0.162,0.269,0.254,0.249,0.141,0.086,south,1.1,No
2020/06/18,07:10,0.180,0.163,0.266,0.256,0.251,0.140,0.087,south-southeast,0.6,No
2020/06/18,07:20,0.179,0.164,0.265,0.254,0.250,0.142,0.086,east,1.5,No
2020/06/18,07:30,0.179,0.163,0.269,0.253,0.248,0.142,0.086,east,1.8,No
2020/06/18,07:40,0.179,0.164,0.269,0.255,0.252,0.141,0.087,east,0.9,No
2020/06/18,07:50,0.179,0.164,0.266,0.255,0.251,0.142,0.086,east-southeast,0.8,No
2020/06/18,08:00,0.180,0.163,0.265,0.254,0.250,0.141,0.087,east-northeast,1.5,No
2020/06/18,08:10,0.180,0.165,0.268,0.255,0.250,0.142,0.087,east-northeast,1.6,No
2020/06/18,08:20,0.179,0.165,0.267,0.258,0.253,0.142,0.087,northeast,1.6,No
2020/06/18,08:30,0.181,0.165,0.267,0.256,0.250,0.141,0.086,northeast,1.8,No
2020/06/18,08:40,0.181,0.166,0.270,0.254,0.248,0.142,0.087,east-northeast,1.8,No
2020/06/18,08:50,0.178,0.165,0.269,0.257,0.251,0.142,0.087,east-northeast,0.9,No
2020/06/18,09:00,0.180,0.163,0.265,0.256,0.252,0.141,0.086,east-southeast,1.2,No
2020/06/18,09:10,0.179,0.164,0.264,0.254,0.249,0.141,0.087,southeast,0.7,No
2020/06/18,09:20,0.176,0.163,0.269,0.253,0.248,0.141,0.087,-,CALM,No
2020/06/18,09:30,0.179,0.161,0.268,0.255,0.249,0.140,0.086,south-southeast,1.0,No
2020/06/18,09:40,0.180,0.162,0.267,0.255,0.250,0.140,0.086,south-southeast,1.1,No
2020/06/18,09:50,0.178,0.163,0.265,0.254,0.249,0.141,0.085,-,CALM,No
2020/06/18,10:00,0.176,0.163,0.265,0.254,0.247,0.140,0.084,south-southeast,1.8,No
2020/06/18,10:10,0.178,0.162,0.267,0.252,0.247,0.140,0.085,south,2.4,No
2020/06/18,10:20,0.180,0.161,0.267,0.255,0.250,0.140,0.085,southeast,2.4,No
2020/06/18,10:30,0.178,0.163,0.265,0.256,0.250,0.140,0.086,south-southeast,3.5,No
2020/06/18,10:40,0.177,0.164,0.266,0.253,0.249,0.140,0.085,southeast,3.0,No
2020/06/18,10:50,0.175,0.163,0.265,0.253,0.248,0.140,0.084,southeast,2.9,No
2020/06/18,11:00,0.178,0.162,0.266,0.252,0.245,0.140,0.085,east-southeast,0.6,No
2020/06/18,11:10,0.179,0.161,0.268,0.255,0.247,0.140,0.085,east-southeast,2.9,No
2020/06/18,11:20,0.177,0.163,0.267,0.257,0.251,0.140,0.085,east-southeast,0.6,No
2020/06/18,11:30,0.177,0.163,0.266,0.254,0.251,0.138,0.085,south-southeast,2.4,No
2020/06/18,11:40,0.176,0.162,0.264,0.253,0.248,0.139,0.084,south-southeast,1.2,No
2020/06/18,11:50,0.178,0.162,0.266,0.252,0.247,0.140,0.084,south-southeast,3.2,No
2020/06/18,12:00,0.179,0.162,0.269,0.255,0.248,0.141,0.084,southeast,3.4,No
2020/06/18,12:10,0.177,0.162,0.267,0.256,0.250,0.140,0.085,southeast,4.3,No
2020/06/18,12:20,0.177,0.164,0.266,0.255,0.251,0.140,0.086,southeast,3.3,No
2020/06/18,12:30,0.179,0.162,0.263,0.252,0.248,0.140,0.084,south-southeast,4.9,No
2020/06/18,12:40,0.179,0.162,0.268,0.254,0.248,0.140,0.085,southeast,4.1,No
2020/06/18,12:50,0.178,0.162,0.268,0.256,0.246,0.139,0.085,south-southeast,5.2,No
2020/06/18,13:00,0.176,0.164,0.267,0.255,0.250,0.140,0.085,south-southeast,4.8,No
2020/06/18,13:10,0.176,0.163,0.265,0.254,0.251,0.140,0.085,south-southeast,4.8,No
2020/06/18,13:20,0.178,0.162,0.265,0.252,0.249,0.139,0.085,south-southeast,4.9,No
2020/06/18,13:30,0.178,0.162,0.269,0.255,0.249,0.140,0.085,south-southeast,5.6,No
2020/06/18,13:40,0.178,0.164,0.269,0.255,0.246,0.139,0.085,south-southeast,5.4,No
2020/06/18,13:50,0.177,0.163,0.266,0.255,0.250,0.140,0.084,south-southeast,6.1,No
2020/06/18,14:00,0.179,0.162,0.265,0.254,0.252,0.140,0.084,southeast,4.2,No
2020/06/18,14:10,0.178,0.162,0.266,0.255,0.249,0.139,0.085,south-southeast,5.2,No
2020/06/18,14:20,0.178,0.164,0.269,0.256,0.248,0.140,0.085,south-southeast,3.4,No
2020/06/18,14:30,0.177,0.162,0.268,0.256,0.246,0.141,0.084,south-southeast,4.0,No
2020/06/18,14:40,0.176,0.162,0.266,0.253,0.247,0.140,0.084,southeast,3.7,No
2020/06/18,14:50,0.179,0.161,0.265,0.253,0.250,0.141,0.085,south-southeast,4.7,No
2020/06/18,15:00,0.180,0.163,0.264,0.253,0.252,0.140,0.085,south-southeast,4.2,No
2020/06/18,15:10,0.177,0.164,0.268,0.256,0.249,0.139,0.085,south-southeast,5.3,No
2020/06/18,15:20,0.177,0.162,0.268,0.256,0.249,0.140,0.085,south,5.4,No
2020/06/18,15:30,0.176,0.163,0.267,0.254,0.248,0.141,0.084,south-southeast,6.3,No
2020/06/18,15:40,0.179,0.162,0.264,0.253,0.246,0.140,0.085,south-southeast,7.0,No
2020/06/18,15:50,0.179,0.163,0.267,0.257,0.248,0.140,0.085,south-southeast,6.2,No
2020/06/18,16:00,0.178,0.163,0.270,0.256,0.252,0.140,0.085,south-southeast,7.5,No
2020/06/18,16:10,0.177,0.161,0.268,0.254,0.250,0.140,0.085,south-southeast,6.7,No
2020/06/18,16:20,0.179,0.163,0.266,0.256,0.247,0.140,0.085,south-southeast,7.2,No
2020/06/18,16:30,0.179,0.162,0.268,0.257,0.251,0.139,0.084,south-southeast,7.0,No
2020/06/18,16:40,0.177,0.163,0.269,0.256,0.252,0.140,0.086,south-southeast,6.7,No
2020/06/18,16:50,0.179,0.164,0.266,0.255,0.247,0.141,0.085,south-southeast,5.9,No
2020/06/18,17:00,0.180,0.163,0.269,0.257,0.253,0.139,0.085,south-southeast,5.5,No
2020/06/18,17:10,0.178,0.162,0.268,0.254,0.251,0.140,0.085,south-southeast,5.0,No
2020/06/18,17:20,0.178,0.163,0.267,0.256,0.250,0.140,0.085,south,5.1,No
2020/06/18,17:30,0.179,0.163,0.271,0.257,0.251,0.140,0.085,south-southeast,4.4,No
2020/06/18,17:40,0.178,0.164,0.268,0.254,0.250,0.141,0.085,south,5.1,No
2020/06/18,17:50,0.178,0.163,0.268,0.258,0.249,0.141,0.085,south-southeast,4.4,No
2020/06/18,18:00,0.178,0.162,0.269,0.254,0.253,0.140,0.085,south,5.0,No
2020/06/18,18:10,0.177,0.163,0.266,0.256,0.248,0.141,0.085,south-southeast,5.4,No
2020/06/18,18:20,0.179,0.163,0.269,0.256,0.250,0.140,0.084,south-southeast,5.9,No
2020/06/18,18:30,0.178,0.164,0.268,0.254,0.251,0.140,0.086,south,5.7,No
2020/06/18,18:40,0.178,0.163,0.267,0.258,0.249,0.140,0.085,south,6.5,No
2020/06/18,18:50,0.179,0.163,0.269,0.256,0.252,0.140,0.085,south,6.3,No
2020/06/18,19:00,0.178,0.164,0.267,0.256,0.249,0.141,0.085,south,6.2,No
2020/06/18,19:10,0.178,0.163,0.269,0.257,0.250,0.140,0.084,south,5.9,No
2020/06/18,19:20,0.178,0.163,0.269,0.254,0.252,0.141,0.085,south,6.0,No
2020/06/18,19:30,0.178,0.164,0.268,0.257,0.248,0.140,0.085,south,5.6,No
2020/06/18,19:40,0.179,0.164,0.269,0.254,0.252,0.139,0.084,south,4.7,No
2020/06/18,19:50,0.178,0.163,0.267,0.256,0.250,0.141,0.085,south,5.0,No
2020/06/18,20:00,0.179,0.163,0.270,0.256,0.249,0.140,0.085,south,5.1,No
2020/06/18,20:10,0.179,0.165,0.267,0.254,0.251,0.140,0.085,south,3.8,No
2020/06/18,20:20,0.178,0.163,0.269,0.257,0.248,0.141,0.085,south,3.9,No
2020/06/18,20:30,0.180,0.164,0.269,0.255,0.250,0.140,0.085,south-southwest,3.7,No
2020/06/18,20:40,0.177,0.162,0.267,0.257,0.250,0.141,0.086,southwest,1.1,No
2020/06/18,20:50,0.180,0.164,0.269,0.255,0.249,0.141,0.085,south-southwest,4.7,No
2020/06/18,21:00,0.179,0.163,0.268,0.255,0.251,0.141,0.085,south-southwest,4.6,No
2020/06/18,21:10,0.179,0.164,0.269,0.257,0.248,0.142,0.085,south-southwest,4.9,No
2020/06/18,21:20,0.180,0.163,0.269,0.254,0.252,0.141,0.086,south-southwest,4.7,No
2020/06/18,21:30,0.179,0.164,0.269,0.257,0.251,0.141,0.086,south-southwest,4.4,No
2020/06/18,21:40,0.180,0.164,0.269,0.256,0.251,0.141,0.086,south-southwest,4.7,No
2020/06/18,21:50,0.178,0.162,0.269,0.259,0.251,0.141,0.086,south-southwest,4.8,No
2020/06/18,22:00,0.179,0.164,0.270,0.256,0.249,0.141,0.085,south,3.5,No
2020/06/18,22:10,0.179,0.163,0.267,0.256,0.252,0.141,0.086,south-southwest,4.3,No
2020/06/18,22:20,0.178,0.164,0.270,0.257,0.250,0.141,0.086,south,4.1,No
2020/06/18,22:30,0.180,0.163,0.268,0.255,0.250,0.140,0.087,south,4.1,No
2020/06/18,22:40,0.179,0.164,0.270,0.258,0.251,0.141,0.086,south,3.7,No
2020/06/18,22:50,0.180,0.164,0.270,0.255,0.248,0.141,0.086,south,3.6,No
2020/06/18,23:00,0.179,0.164,0.269,0.259,0.251,0.140,0.086,south-southwest,3.5,No
2020/06/18,23:10,0.179,0.164,0.270,0.254,0.250,0.142,0.086,south-southwest,2.3,No
2020/06/18,23:20,0.180,0.164,0.268,0.257,0.251,0.141,0.086,south-southwest,2.3,No
2020/06/18,23:30,0.179,0.165,0.271,0.257,0.252,0.143,0.087,south-southwest,2.8,No
2020/06/18,23:40,0.181,0.164,0.269,0.256,0.249,0.140,0.086,south-southwest,2.5,No
2020/06/18,23:50,0.179,0.165,0.271,0.258,0.253,0.141,0.087,south-southwest,2.7,No
